Location: Dammartin
(48.9032°N, 1.6195°E)
Time: 14:24:55
(UTC+00:00)

Cosmos 1844 Rocket - Pass Details

Date: 03 February 2023
Orbit: 825 x 843 km, 71.0° (Epoch: 29 March)

Event Time Altitude Azimuth Distance (km) Brightness Sun altitude
Rises 17:40:11 0° 333° (NNW) 3,377 6.0 -8.0°
Reaches altitude 10° 17:42:42 10° 339° (NNW) 2,439 5.2 -8.4°
Maximum altitude 17:48:09 52° 56° (NE) 1,023 2.8 -9.2°
Drops below altitude 10° 17:53:34 10° 132° (SE) 2,424 4.8 -10.1°
Sets 17:56:03 0° 137° (SE) 3,355 5.5 -10.5°
